Location: Casilda
(33.0440°S, 61.1680°W)
Time: 00:55:35
(UTC-03:00)

ISS - Pass Details

Date: 16 February 2020
Orbit: 415 x 423 km, 51.6° (Epoch: 27 February)

Event Time Altitude Azimuth Distance (km) Brightness Sun altitude
Exits shadow 05:28:23 20° 348° (NNW) 1,034 -2.1 -15.2°
Drops below altitude 10° 05:29:53 10° 9° (N) 1,494 -1.1 -14.9°
Sets 05:32:10 0° 21° (NNE) 2,350 0.0 -14.4°
